Location: Recife
(8.0585°S, 34.8848°W)
Time: 21:23:13
(UTC-03:00)

A-11 Canister half - Pass Details

Date: 18 April 2026
Orbit: 1523 x 1685 km, 47.3° (Epoch: 12 May)

Event Time Altitude Azimuth Distance (km) Brightness Sun altitude
Rises 11:25:13 0° 272° (W) 4,758 11.6 70.9°
Reaches altitude 10° 11:30:27 10° 248° (WSW) 3,744 11.1 70.8°
Maximum altitude 11:34:59 14° 219° (SW) 3,396 10.9 70.6°
Drops below altitude 10° 11:39:30 10° 189° (S) 3,708 11.0 70.3°
Sets 11:44:42 0° 165° (SSE) 4,679 11.3 69.9°
